Orange, MA

6:12 AM EST on December 13, 2019 (GMT -0500)
Orange Municipal

Weather History for KORE - October, 2019

Change the Weather History Date:

Tuesday, October 29, 2019

  Actual Average Record
Temperature  
Mean Temperature 52 °F -  
Max Temperature 57 °F 52 °F 71 °F (2015)
Min Temperature 48 °F 31 °F 19 °F (2001)
Degree Days  
Heating Degree Days 12    
Growing Degree Days 2 (Base 50)    
Moisture  
Dew Point 48 °F    
Average Humidity 85    
Maximum Humidity 94    
Minimum Humidity 69    
Precipitation  
Precipitation 0.00 in - - ()
Sea Level Pressure  
Sea Level Pressure 30.33 in    
Wind  
Wind Speed 2 mph ()    
Max Wind Speed 10 mph    
Max Gust Speed -    
Visibility 7.8 miles    
Events      
Averages and records for this station are not official NWS values.
T = Trace of Precipitation, MM = Missing Value Source: Averaged Metar Reports

Daily Weather History Graph

Daily Weather History Graph

Search for Another Location

Airport or City:

Astronomy

Oct. 29, 2019 Rise Set
Actual Time 7:18 AM EDT 5:46 PM EDT
Civil Twilight 6:49 AM EDT 6:15 PM EDT
Nautical Twilight 6:16 AM EDT 6:48 PM EDT
Astronomical Twilight 5:43 AM EDT 7:21 PM EDT
Moon 8:50 AM EDT (10/29) 7:06 PM EDT (10/29)
Length of Visible Light 11h 25m
Length of Day
10h 27m
Waxing Crescent, 3% of the Moon is Illuminated
Oct 29
Waxing Crescent
Nov 4
First Quarter
Nov 12
Full
Nov 19
Last Quarter
Nov 26
New

Hourly Weather History & Observations

Time (EDT) Temp. Dew Point Humidity Pressure Visibility Wind Dir Wind Speed Gust Speed Precip Events Conditions
12:52 AM 51.1 °F 45.0 °F 80% 30.34 in 10.0 mi Calm Calm - N/A   Overcast
1:52 AM 50.0 °F 45.0 °F 83% 30.35 in 10.0 mi Calm Calm - N/A   Overcast
2:52 AM 50.0 °F 45.0 °F 83% 30.35 in 10.0 mi Calm Calm - N/A   Overcast
3:03 AM 50.0 °F 46.0 °F 86% 30.34 in 10.0 mi SSE 3.5 mph - N/A   Overcast
3:52 AM 50.0 °F 46.0 °F 86% 30.35 in 10.0 mi Calm Calm - N/A   Overcast
4:01 AM 50.0 °F 46.0 °F 86% 30.34 in 10.0 mi Calm Calm - N/A   Overcast
4:52 AM 50.0 °F 46.0 °F 86% 30.35 in 10.0 mi Calm Calm - N/A   Overcast
5:52 AM 50.0 °F 46.0 °F 86% 30.35 in 10.0 mi Calm Calm - N/A   Overcast
6:05 AM 50.0 °F 46.0 °F 86% 30.34 in 10.0 mi Calm Calm - N/A   Overcast
6:24 AM 50.0 °F 46.0 °F 86% 30.34 in 9.0 mi South 4.6 mph - N/A   Overcast
6:52 AM 48.9 °F 46.0 °F 90% 30.36 in 7.0 mi South 3.5 mph - N/A   Overcast
7:43 AM 48.9 °F 45.0 °F 86% 30.35 in 10.0 mi SE 4.6 mph - N/A   Overcast
7:52 AM 48.9 °F 45.0 °F 86% 30.35 in 10.0 mi SE 5.8 mph - N/A   Overcast
8:16 AM 50.0 °F 45.0 °F 83% 30.35 in 10.0 mi SSE 4.6 mph - N/A   Overcast
8:28 AM 50.0 °F 45.0 °F 83% 30.35 in 10.0 mi Variable 4.6 mph - N/A   Overcast
8:52 AM 50.0 °F 45.0 °F 83% 30.37 in 10.0 mi South 3.5 mph - N/A   Overcast
9:08 AM 50.0 °F 45.0 °F 83% 30.36 in 9.0 mi South 3.5 mph - N/A   Overcast
9:52 AM 50.0 °F 46.0 °F 86% 30.37 in 9.0 mi SSE 3.5 mph - N/A   Overcast
10:49 AM 51.8 °F 46.4 °F 82% 30.35 in 10.0 mi Variable 3.5 mph - N/A   Overcast
10:52 AM 53.1 °F 46.0 °F 77% 30.37 in 10.0 mi South 4.6 mph - N/A   Overcast
11:52 AM 53.1 °F 46.0 °F 77% 30.36 in 10.0 mi SE 6.9 mph - N/A   Overcast
12:52 PM 54.0 °F 46.0 °F 75% 30.34 in 10.0 mi SSW 5.8 mph - N/A   Overcast
1:52 PM 55.9 °F 46.0 °F 69% 30.31 in 10.0 mi South 8.1 mph - N/A   Overcast
2:52 PM 57.0 °F 46.9 °F 69% 30.29 in 10.0 mi South 9.2 mph - N/A   Overcast
3:52 PM 57.0 °F 48.0 °F 72% 30.30 in 10.0 mi South 10.4 mph - N/A   Overcast
4:52 PM 55.9 °F 48.9 °F 77% 30.29 in 10.0 mi SSW 4.6 mph - N/A   Overcast
5:03 PM 55.9 °F 48.9 °F 77% 30.29 in 10.0 mi South 6.9 mph - N/A   Overcast
5:52 PM 54.0 °F 50.0 °F 86% 30.30 in 6.0 mi Variable 3.5 mph - N/A   Overcast
6:23 PM 54.0 °F 51.1 °F 90% 30.30 in 3.0 mi SSE 3.5 mph - N/A   Overcast
6:33 PM 54.0 °F 51.1 °F 90% 30.30 in 2.5 mi Calm Calm - N/A   Overcast
6:52 PM 53.1 °F 51.1 °F 93% 30.32 in 2.5 mi SSE 3.5 mph - N/A   Overcast
7:06 PM 53.1 °F 51.1 °F 93% 30.31 in 3.0 mi Calm Calm - N/A   Overcast
7:13 PM 53.1 °F 51.1 °F 93% 30.31 in 3.0 mi Calm Calm - N/A   Overcast
7:24 PM 53.1 °F 51.1 °F 93% 30.31 in 4.0 mi SSE 3.5 mph - N/A   Overcast
7:52 PM 53.1 °F 51.1 °F 93% 30.32 in 5.0 mi SE 3.5 mph - N/A   Overcast
8:23 PM 53.1 °F 51.1 °F 93% 30.30 in 8.0 mi SSE 4.6 mph - N/A   Overcast
8:52 PM 53.1 °F 51.1 °F 93% 30.31 in 7.0 mi SSE 3.5 mph - N/A   Overcast
9:52 PM 54.0 °F 51.1 °F 90% 30.32 in 10.0 mi Calm Calm - N/A   Overcast
10:52 PM 53.1 °F 51.1 °F 93% 30.32 in 2.5 mi Calm Calm - N/A   Overcast
11:01 PM 53.1 °F 51.1 °F 93% 30.32 in 3.0 mi Calm Calm - N/A   Overcast
11:40 PM 53.1 °F 51.1 °F 93% 30.31 in 5.0 mi Calm Calm - N/A   Overcast
11:47 PM 53.6 °F 51.8 °F 94% 30.31 in 5.0 mi Calm Calm - N/A   Overcast
11:52 PM 53.1 °F 51.1 °F 93% 30.32 in 4.0 mi Calm Calm - N/A   Overcast